Regional Weather Roundup
Issued by NWS

Home | Current Version | Previous Version | Graphics & Text | Print | Product List | Glossary On
Versions: 1 2 3 4 5 6 7 8 9 10 11 12 13 14 15 16 17 18 19 20 21 22 23 24 25 26 27 28 29 30 31 32 33 34 35 36 37 38 39 40 41 42 43 44 45 46 47 48 49 50
000
ASUS44 KMEG 261410
RWRTN
TENNESSEE HOURLY STATE WEATHER ROUNDUP
NATIONAL WEATHER SERVICE MEMPHIS TN
800 AM CST THU FEB 26 2015

TNZ002-004-019-021-049-052-054-088>092-261500-
WEST TENNESSEE

CITY           SKY/WX    TMP DP  RH WIND       PRES   REMARKS
MEMPHIS INTL   FOG       27  26  96 W3        30.04R VSB 1/2
NWS MEMPHIS      N/A     29 N/A N/A MISG        N/A
JACKSON        SUNNY     30  26  85 NW6       30.03R WCI  24
DYERSBURG      CLOUDY    28  18  64 CALM      30.06R
UNION CITY     CLOUDY    25  25 100 CALM      30.02R
PARIS          PTSUNNY   27  21  80 CALM      30.01R
LEXINGTON      SUNNY     28  27  93 CALM      30.00R
SAVANNAH       CLOUDY    27  27 100 CALM      30.02R VSB 0
$$

TNZ008-025-027-028-033-062-065-066-261500-
NORTH MIDDLE TENNESSEE

CITY           SKY/WX    TMP DP  RH WIND       PRES   REMARKS
NASHVILLE      MOSUNNY   31  28  89 NW3       29.98R FOG
CLARKSVILLE    MOSUNNY   28  23  81 CALM      30.00R HAZE
SMYRNA         PTSUNNY   29  28  96 NW7       30.00R WCI  22
COOKEVILLE     CLOUDY    28  28 100 VRB3      29.91R
CROSSVILLE     CLOUDY    29  25  85 N8        29.87R WCI  21
$$

TNZ061-075-076-078-094-096-097-261500-
SOUTH MIDDLE TENNESSEE

CITY           SKY/WX    TMP DP  RH WIND       PRES   REMARKS
FAYETTEVILLE   CLOUDY    28  27  93 N7          N/A  WCI  21
TULLAHOMA      CLOUDY    28  27  93 N6        29.94R WCI  22
WINCHESTER     CLOUDY    28  28 100 N3        29.94R
MCMINNVILLE    MOSUNNY   28  28 100 N5        29.93R WCI  23
COLUMBIA       CLOUDY   N/A N/A N/A CALM      29.97R
SHELBYVILLE    CLOUDY    30  28  93 N7        29.97R WCI  23
$$

TNZ017-018-042-046-047-261500-
NORTHEAST TENNESSEE

CITY           SKY/WX    TMP DP  RH WIND       PRES   REMARKS
TRI CITIES     CLOUDY    32  29  88 CALM      29.83R
ELIZABETHTON   CLOUDY    28  28 100 SW5       29.81R FOG     WCI  23
$$

TNZ012-013-036-069-073-074-261500-
CENTRAL EAST TENNESSEE

CITY           SKY/WX    TMP DP  RH WIND       PRES   REMARKS
KNOXVILLE      CLOUDY    30  29  96 CALM      29.86R FOG
OAK RIDGE      CLOUDY    33  29  85 CALM      29.88R
GATLINBURG     CLOUDY    28  27  93 CALM      29.85S
MORRISTOWN       N/A     28  28 100 S3        29.84R
$$

TNZ083-085-099-261500-
SOUTHEAST TENNESSEE

CITY           SKY/WX    TMP DP  RH WIND       PRES   REMARKS
CHATTANOOGA    PTSUNNY   31  30  96 CALM      29.92R
$$

SKY/WX REPORTED AS FAIR MEANS FEW OR NO CLOUDS BELOW
12 THOUSAND FEET.




USA.gov is the U.S. government's official web portal to all federal, state and local government web resources and services.